World > North America > United States > Pennsylvania > Cowansville  

Cowansville, PA Hourly Weather Updates

Feedback E-mail the Weather

Quick Clicks

Cowansville, PA Weather Maps

°F °C°F °C
Cowansville Weather Map
UTC Time: 7/19/2024, 10:01
Your Time:

Cowansville, PA Regional Weather

Expires:202407191000;;295823
ASUS41 KCTP 190910
RWRCTP

REGIONAL WEATHER ROUNDUP
NATIONAL WEATHER SERVICE STATE COLLEGE PA
500 AM EDT FRI JUL 19 2024

Note: "fair" indicates few or no clouds below 12,000 feet with no 
significant weather and/or obstructions to visibility.

* = STATION THAT DOES NOT REPORT PRECIPITATION /E.G. RAIN...SNOW...ETC/
    THUNDER OR FOG.


PAZ002>004-007>009-013>016-020>023-029>032-191000-
WESTERN PENNSYLVANIA
  
CITY           SKY/WX    TMP DP  RH WIND       PRES   REMARKS
ERIE           CLEAR     59  55  87 S3        30.14S                  
MEADVILLE      CLEAR     55  53  93 NE3       30.16R                  
FRANKLIN       CLEAR     52  32  46 CALM      30.17R                  
NEW CASTLE     CLEAR     52  52 100 CALM      30.16S                  
BEAVER COUNTY  CLEAR     58  55  87 CALM      30.16S                  
BUTLER         CLEAR     53  53 100 CALM      30.16S                  
PITTSBURGH INT PTCLDY    60  54  80 NW5       30.15R                  
PITTSBURGH     CLEAR     60  54  80 N3        30.14S                  
INDIANA*       PTCLDY    55  55 100 CALM      30.18S                  
LATROBE        CLEAR     55  54  94 CALM      30.15S                  
CONNELLSVILLE  CLEAR     56  54  92 E5        30.15S                  
WASHINGTON CO* CLEAR     55  54  96 CALM      30.18S                  
$$


SKY/WX - Weather  TMP - Temperature  DP - Dew Point  RH - Humidity
WIND - Wind Direction/Speed PRES - Barometric Pressure VSB - Visibility
WCI - Wind Chill Index E13G22 Wind - East Wind 13 mph/Gusts of 22 mph

Trending Headlines

Trending Entertainment Headlines

Cowansville Radar Loop

Use the map search tool if you want to place a location marker on the radar map...

Cowansville Quick Facts

National Two Day Weather Forecast


E-mail the Cowansville Weather Forecast

Voice your opinion or tell us about page issues...